GW3202 Weather Reports


time (UTC)temp
C
wind
direction
speed
KPH
gust
KPH
rain 1hr
cm
rain 24hr
cm
rain mn
cm
humidity
%
barometer
mb
20260507015004 22 140 17.7 40.2 0.00 0.00 0.00 60 1018.2
20260507014004 22 150 27.4 41.8 0.00 0.00 0.00 60 1018.1
20260507013004 22 152 20.9 56.3 0.00 0.00 0.00 59 1018.1
20260507012004 22 151 6.4 56.3 0.00 0.00 0.00 62 1018.1
20260507011004 23 167 20.9 45.1 0.00 0.00 0.00 62 1017.9
20260507010005 23 157 32.2 41.8 0.00 0.00 0.00 60 1017.9
20260507005004 23 159 25.7 46.7 0.00 0.00 0.00 58 1017.7
20260507004004 25 166 16.1 41.8 0.00 0.00 0.00 55 1017.5
20260507002004 25 153 22.5 40.2 0.00 0.00 0.00 53 1017.4
20260507001004 26 139 17.7 45.1 0.00 0.00 0.00 53 1017.3
20260507000005 26 182 14.5 35.4 0.00 0.00 0.00 49 1017.4
20260506235005 26 196 9.7 40.2 0.00 0.00 0.00 50 1017.4
20260506234005 27 162 11.3 40.2 0.00 0.00 0.00 46 1017.3
20260506233005 27 150 25.7 40.2 0.00 0.00 0.00 46 1017.4
20260506232005 27 198 12.9 35.4 0.00 0.00 0.00 46 1017.2
20260506231005 27 151 16.1 41.8 0.00 0.00 0.00 45 1017.2
20260506230006 27 154 8.0 35.4 0.00 0.00 0.00 47 1017.3
20260506224005 27 172 24.1 38.6 0.00 0.00 0.00 48 1017.2
20260506223004 28 155 19.3 32.2 0.00 0.00 0.00 48 1017.2
20260506222005 28 163 16.1 38.6 0.00 0.00 0.00 48 1017.3
20260506221025 28 202 9.7 45.1 0.00 0.00 0.00 49 1017.4
20260506220004 28 167 20.9 49.9 0.00 0.00 0.00 50 1017.4
20260506214004 29 146 9.7 35.4 0.00 0.00 0.00 49 1017.7
20260506213004 29 151 19.3 38.6 0.00 0.00 0.00 47 1017.6
20260506211004 29 166 12.9 40.2 0.00 0.00 0.00 44 1017.7
20260506210004 30 160 11.3 33.8 0.00 0.00 0.00 43 1017.8
20260506205004 30 153 19.3 33.8 0.00 0.00 0.00 43 1017.9
20260506204004 30 119 3.2 40.2 0.00 0.00 0.00 43 1017.9
20260506203004 30 137 9.7 35.4 0.00 0.00 0.00 44 1018.0
20260506202004 30 158 9.7 32.2 0.00 0.00 0.00 42 1018.2
20260506201004 30 142 12.9 32.2 0.00 0.00 0.00 43 1018.3
20260506200005 30 196 14.5 29.0 0.00 0.00 0.00 39 1018.5
20260506195004 30 241 8.0 25.7 0.00 0.00 0.00 40 1018.8
20260506194004 30 200 8.0 24.1 0.00 0.00 0.00 38 1018.7
20260506193004 30 257 8.0 24.1 0.00 0.00 0.00 39 1018.7
20260506191004 30 223 4.8 27.4 0.00 0.00 0.00 40 1019.0
20260506190005 30 177 8.0 27.4 0.00 0.00 0.00 41 1019.3
20260506185004 30 237 9.7 22.5 0.00 0.00 0.00 39 1019.3
20260506184004 31 195 4.8 19.3 0.00 0.00 0.00 39 1019.4
20260506183005 30 191 6.4 16.1 0.00 0.00 0.00 40 1019.5
20260506182004 30 251 6.4 16.1 0.00 0.00 0.00 40 1019.7
20260506181006 30 222 6.4 16.1 0.00 0.00 0.00 41 1019.7
20260506180003 29 204 6.4 24.1 0.00 0.00 0.00 42 1019.7
20260506175003 28 169 9.7 24.1 0.00 0.00 0.00 45 1019.8
20260506173003 28 158 4.8 24.1 0.00 0.00 0.00 44 1020.0
20260506172003 27 159 11.3 27.4 0.00 0.00 0.00 44 1020.2
20260506171003 27 162 8.0 22.5 0.00 0.00 0.00 44 1020.3
20260506165003 27 175 6.4 19.3 0.00 0.00 0.00 46 1020.4
20260506164003 28 163 8.0 16.1 0.00 0.00 0.00 44 1020.3
20260506163003 27 133 9.7 16.1 0.00 0.00 0.00 47 1020.4
20260506162003 27 239 8.0 14.5 0.00 0.00 0.00 47 1020.3
20260506161003 26 302 4.8 8.0 0.00 0.00 0.00 50 1020.5
20260506160002 26 200 1.6 8.0 0.00 0.00 0.00 51 1020.4
20260506155003 25 52 3.2 4.8 0.00 0.00 0.00 53 1020.4
20260506154003 25 168 0.0 3.2 0.00 0.00 0.00 52 1020.3
20260506153003 23 274 1.6 8.0 0.00 0.00 0.00 55 1020.3
20260506152002 23 328 3.2 8.0 0.00 0.00 0.00 56 1020.4
20260506151003 23 76 1.6 4.8 0.00 0.00 0.00 56 1020.2
20260506150002 22 343 3.2 3.2 0.00 0.00 0.00 58 1020.4
20260506145002 22 123 1.6 4.8 0.00 0.00 0.00 58 1020.4
20260506144003 21 42 1.6 4.8 0.00 0.00 0.00 62 1020.3
20260506143002 21 351 0.0 4.8 0.00 0.00 0.00 63 1020.4
20260506142003 21 50 3.2 4.8 0.00 0.00 0.00 63 1020.3
20260506141003 21 57 1.6 4.8 0.00 0.00 0.00 64 1020.2
20260506140003 20 139 1.6 4.8 0.00 0.00 0.00 67 1020.2
20260506135002 20 63 1.6 4.8 0.00 0.00 0.00 66 1020.2
20260506134003 18 124 3.2 8.0 0.00 0.00 0.00 69 1020.2
20260506132003 17 118 1.6 3.2 0.00 0.00 0.00 74 1020.1
20260506130003 16 121 3.2 4.8 0.00 0.00 0.00 79 1019.9
20260506124003 15 122 1.6 4.8 0.00 0.00 0.00 81 1019.7
20260506123003 16 133 3.2 4.8 0.00 0.00 0.00 81 1019.8
20260506122003 16 131 1.6 3.2 0.00 0.00 0.00 81 1019.6
20260506121002 16 113 0.0 4.8 0.00 0.00 0.00 79 1019.6
20260506120003 15 150 3.2 3.2 0.00 0.00 0.00 80 1019.7
20260506115003 15 127 0.0 3.2 0.00 0.00 0.00 79 1019.4
20260506114002 15 133 3.2 3.2 0.00 0.00 0.00 79 1019.5
20260506113002 15 277 1.6 4.8 0.00 0.00 0.00 79 1019.5
20260506112002 16 92 0.0 3.2 0.00 0.00 0.00 80 1019.1
20260506111003 16 129 1.6 4.8 0.00 0.00 0.00 80 1019.3
20260506104002 16 129 3.2 8.0 0.00 0.00 0.00 79 1019.1
20260506103003 16 114 3.2 4.8 0.00 0.00 0.00 80 1019.0
20260506102003 16 105 0.0 1.6 0.00 0.00 0.00 79 1019.1
20260506101004 16 58 1.6 3.2 0.00 0.00 0.00 78 1019.1
20260506100003 16 26 0.0 3.2 0.00 0.00 0.00 78 1019.1
20260506095003 16 83 1.6 3.2 0.00 0.00 0.00 78 1019.0
20260506094003 16 90 0.0 4.8 0.00 0.00 0.00 78 1019.0
20260506093003 17 109 3.2 4.8 0.00 0.00 0.00 77 1019.2
20260506092003 17 133 1.6 4.8 0.00 0.00 0.00 77 1019.0
20260506091003 17 114 1.6 3.2 0.00 0.00 0.00 76 1019.1
20260506090003 17 92 1.6 3.2 0.00 0.00 0.00 76 1019.0
20260506084003 17 105 1.6 3.2 0.00 0.00 0.00 76 1019.2
20260506083003 17 118 1.6 3.2 0.00 0.00 0.00 76 1019.3
20260506082003 17 170 0.0 1.6 0.00 0.00 0.00 75 1019.4
20260506081003 17 249 0.0 3.2 0.00 0.00 0.00 75 1019.4
20260506073003 17 255 0.0 3.2 0.00 0.00 0.00 74 1019.8
20260506072004 17 129 1.6 4.8 0.00 0.00 0.00 73 1019.8
20260506071007 18 122 3.2 3.2 0.00 0.00 0.00 74 1019.8
20260506062004 17 249 0.0 3.2 0.00 0.00 0.00 72 1019.9
20260506061003 18 294 1.6 4.8 0.00 0.00 0.00 71 1020.0
20260506051003 21 125 3.2 19.3 0.00 0.00 0.00 67 1019.9
20260506045003 21 68 0.0 9.7 0.00 0.00 0.00 67 1019.7
20260506044004 21 0 4.8 16.1 0.00 0.00 0.00 66 1019.5
20260506042003 21 152 17.7 32.2 0.00 0.00 0.00 66 1019.3
20260506040003 21 141 12.9 37.0 0.00 0.00 0.00 64 1019.0
20260506035003 22 154 27.4 37.0 0.00 0.00 0.00 63 1018.8
20260506034004 22 124 16.1 37.0 0.00 0.00 0.00 64 1018.8
20260506032032 22 137 16.1 41.8 0.00 0.00 0.00 62 1018.5
20260506031009 22 149 20.9 37.0 0.00 0.00 0.00 62 1018.3
20260506030007 22 146 22.5 38.6 0.00 0.00 0.00 62 1018.4
20260506025009 22 146 19.3 41.8 0.00 0.00 0.00 63 1018.2
20260506024003 23 153 19.3 37.0 0.00 0.00 0.00 62 1017.9
20260506022004 23 103 16.1 35.4 0.00 0.00 0.00 61 1017.8
20260506021003 23 150 16.1 33.8 0.00 0.00 0.00 61 1017.8
20260506020003 23 153 16.1 32.2 0.00 0.00 0.00 60 1017.8